• In Belarus
  • List of Countries
  • For 7 days
  • Water Temperature
  • Weather Map
  • Weather Widgets
  • user-avatar
    Login

    Hourly Weather Kalat

    Today, 18 February, Tuesday

    Time Temperature Precipitation Wind Pressure Humidity
    00:00 -14°C° 0 mm 1 mps 466 mmHg 51%
    01:00 -14°C° 0 mm 1 mps 466 mmHg 51%
    02:00 -14°C° 0 mm 1 mps 466 mmHg 51%
    03:00 -13°C° 0 mm 1 mps 467 mmHg 57%
    04:00 -12°C° 0 mm 1 mps 467 mmHg 64%
    05:00 -11°C° 0 mm 1 mps 467 mmHg 70%
    06:00 -11°C° 0 mm 1 mps 468 mmHg 73%
    07:00 -11°C° 0 mm 1 mps 468 mmHg 75%
    08:00 -13°C° 0 mm 2 mps 469 mmHg 78%
    09:00 -10°C° 0 mm 2 mps 470 mmHg 76%
    10:00 -8°C° 0 mm 2 mps 471 mmHg 74%
    11:00 -7°C° 0 mm 2 mps 473 mmHg 70%
    12:00 -6°C° 0.1 mm 2 mps 473 mmHg 71%
    13:00 -6°C° 0.1 mm 2 mps 473 mmHg 72%
    14:00 -5°C° 0.1 mm 2 mps 473 mmHg 72%
    15:00 -6°C° 0.2 mm 2 mps 472 mmHg 78%
    16:00 -7°C° 0.2 mm 2 mps 471 mmHg 83%
    17:00 -8°C° 0.2 mm 2 mps 471 mmHg 88%
    18:00 -9°C° 0.3 mm 2 mps 470 mmHg 91%
    19:00 -10°C° 0.3 mm 2 mps 469 mmHg 93%
    20:00 -13°C° 0.3 mm 2 mps 469 mmHg 96%
    21:00 -11°C° 0.3 mm 1 mps 468 mmHg 96%
    22:00 -12°C° 0.3 mm 1 mps 468 mmHg 96%
    23:00 -12°C° 0.3 mm 1 mps 467 mmHg 97%

    Tomorrow, 19 February, Wednesday

    Time Temperature Precipitation Wind Pressure Humidity
    00:00 -13°C° 0.3 mm 1 mps 467 mmHg 97%
    01:00 -13°C° 0.3 mm 1 mps 466 mmHg 97%
    02:00 -14°C° 0.3 mm 1 mps 466 mmHg 97%
    03:00 -14°C° 0.4 mm 1 mps 466 mmHg 97%
    04:00 -14°C° 0.4 mm 1 mps 466 mmHg 97%
    05:00 -16°C° 0.4 mm 2 mps 466 mmHg 97%
    06:00 -14°C° 0.4 mm 1 mps 466 mmHg 97%
    07:00 -15°C° 0.4 mm 1 mps 466 mmHg 97%
    08:00 -15°C° 0.4 mm 1 mps 467 mmHg 96%
    09:00 -14°C° 0.1 mm 1 mps 467 mmHg 92%
    10:00 -15°C° 0.1 mm 2 mps 467 mmHg 88%
    11:00 -14°C° 0.1 mm 2 mps 468 mmHg 84%
    12:00 -13°C° 0.1 mm 2 mps 468 mmHg 82%
    13:00 -12°C° 0.1 mm 2 mps 469 mmHg 80%
    14:00 -12°C° 0.1 mm 2 mps 469 mmHg 78%
    15:00 -10°C° 0.1 mm 1 mps 468 mmHg 82%
    16:00 -11°C° 0.1 mm 1 mps 468 mmHg 85%
    17:00 -11°C° 0.1 mm 1 mps 467 mmHg 89%
    18:00 -13°C° 0 mm 1 mps 466 mmHg 89%
    19:00 -14°C° 0 mm 1 mps 466 mmHg 89%
    20:00 -16°C° 0 mm 1 mps 465 mmHg 90%
    21:00 -16°C° 0 mm 1 mps 465 mmHg 88%
    22:00 -16°C° 0 mm 1 mps 465 mmHg 86%
    23:00 -16°C° 0 mm 1 mps 465 mmHg 84%

    Day after tomorrow, 20 February, Thursday

    Time Temperature Precipitation Wind Pressure Humidity
    00:00 -16°C° 0 mm 1 mps 465 mmHg 83%
    01:00 -16°C° 0 mm 1 mps 465 mmHg 82%
    02:00 -16°C° 0 mm 1 mps 465 mmHg 81%
    03:00 -16°C° 0 mm 1 mps 465 mmHg 78%
    04:00 -16°C° 0 mm 1 mps 465 mmHg 75%
    05:00 -17°C° 0 mm 1 mps 465 mmHg 72%
    06:00 -16°C° 0 mm 1 mps 466 mmHg 69%
    07:00 -17°C° 0 mm 2 mps 467 mmHg 66%
    08:00 -16°C° 0 mm 2 mps 467 mmHg 63%
    09:00 -14°C° 0 mm 2 mps 469 mmHg 61%
    10:00 -12°C° 0 mm 2 mps 470 mmHg 59%
    11:00 -7°C° 0 mm 1 mps 472 mmHg 57%
    12:00 -7°C° 0 mm 1 mps 472 mmHg 55%
    13:00 -6°C° 0 mm 1 mps 472 mmHg 54%
    14:00 -4°C° 0 mm 1 mps 473 mmHg 52%
    15:00 -6°C° 0 mm 1 mps 472 mmHg 58%
    16:00 -7°C° 0 mm 1 mps 471 mmHg 63%
    17:00 -8°C° 0 mm 0 mps 470 mmHg 68%
    18:00 -9°C° 0 mm 1 mps 469 mmHg 64%
    19:00 -11°C° 0 mm 1 mps 468 mmHg 60%
    20:00 -13°C° 0 mm 1 mps 467 mmHg 55%
    21:00 -13°C° 0 mm 1 mps 466 mmHg 51%
    22:00 -14°C° 0 mm 1 mps 466 mmHg 46%
    23:00 -14°C° 0 mm 1 mps 466 mmHg 41%

    21 February, Friday

    Time Temperature Precipitation Wind Pressure Humidity
    00:00 -15°C° 0 mm 1 mps 465 mmHg 37%
    01:00 -15°C° 0 mm 1 mps 465 mmHg 34%
    02:00 -15°C° 0 mm 1 mps 465 mmHg 30%
    03:00 -17°C° 0 mm 2 mps 465 mmHg 26%
    04:00 -17°C° 0 mm 2 mps 465 mmHg 23%
    05:00 -17°C° 0 mm 2 mps 464 mmHg 19%
    06:00 -17°C° 0 mm 2 mps 465 mmHg 18%
    07:00 -16°C° 0 mm 2 mps 466 mmHg 17%
    08:00 -15°C° 0 mm 2 mps 467 mmHg 16%
    09:00 -13°C° 0 mm 2 mps 469 mmHg 24%
    10:00 -9°C° 0 mm 2 mps 470 mmHg 33%
    11:00 -6°C° 0 mm 2 mps 472 mmHg 41%
    18:00 -10°C° 0 mm 3 mps 469 mmHg 62%
    19:00 -14°C° 0 mm 3 mps 468 mmHg 61%
    20:00 -16°C° 0 mm 3 mps 467 mmHg 60%
    21:00 -16°C° 0 mm 3 mps 467 mmHg 56%
    22:00 -16°C° 0 mm 3 mps 467 mmHg 52%
    23:00 -16°C° 0 mm 3 mps 468 mmHg 48%

    22 February, Saturday

    Time Temperature Precipitation Wind Pressure Humidity
    00:00 -16°C° 0 mm 3 mps 468 mmHg 46%
    01:00 -16°C° 0 mm 3 mps 467 mmHg 43%
    02:00 -16°C° 0 mm 3 mps 467 mmHg 40%
    03:00 -16°C° 0 mm 3 mps 467 mmHg 42%
    04:00 -16°C° 0 mm 3 mps 467 mmHg 43%
    05:00 -15°C° 0 mm 2 mps 467 mmHg 45%
    06:00 -15°C° 0 mm 2 mps 467 mmHg 49%
    07:00 -14°C° 0 mm 2 mps 468 mmHg 53%
    08:00 -14°C° 0 mm 2 mps 469 mmHg 57%
    09:00 -12°C° 0 mm 2 mps 470 mmHg 58%
    10:00 -9°C° 0 mm 2 mps 472 mmHg 60%
    11:00 -7°C° 0 mm 2 mps 473 mmHg 61%
    12:00 -4°C° 0 mm 1 mps 474 mmHg 64%
    13:00 -3°C° 0 mm 1 mps 474 mmHg 66%
    14:00 -3°C° 0 mm 1 mps 474 mmHg 68%
    15:00 -4°C° 0.1 mm 1 mps 473 mmHg 74%
    16:00 -4°C° 0.1 mm 1 mps 473 mmHg 79%
    17:00 -6°C° 0.1 mm 1 mps 472 mmHg 84%
    18:00 -8°C° 0 mm 1 mps 471 mmHg 85%
    19:00 -10°C° 0 mm 1 mps 469 mmHg 87%
    20:00 -12°C° 0 mm 1 mps 468 mmHg 89%
    21:00 -13°C° 0 mm 1 mps 468 mmHg 88%
    22:00 -13°C° 0 mm 1 mps 467 mmHg 87%
    23:00 -14°C° 0 mm 1 mps 467 mmHg 87%

    23 February, Sunday

    Time Temperature Precipitation Wind Pressure Humidity
    00:00 -14°C° 0 mm 1 mps 466 mmHg 83%
    01:00 -15°C° 0 mm 1 mps 466 mmHg 80%
    02:00 -15°C° 0 mm 1 mps 466 mmHg 77%
    03:00 -15°C° 0 mm 1 mps 465 mmHg 71%
    04:00 -15°C° 0 mm 1 mps 465 mmHg 66%
    05:00 -15°C° 0 mm 1 mps 465 mmHg 61%
    06:00 -15°C° 0 mm 1 mps 465 mmHg 55%
    07:00 -14°C° 0 mm 1 mps 466 mmHg 50%
    08:00 -13°C° 0 mm 1 mps 467 mmHg 44%
    09:00 -10°C° 0 mm 1 mps 469 mmHg 45%
    10:00 -8°C° 0 mm 1 mps 471 mmHg 46%
    11:00 -4°C° 0 mm 1 mps 472 mmHg 46%
    12:00 -5°C° 0 mm 2 mps 473 mmHg 49%
    13:00 -5°C° 0 mm 2 mps 473 mmHg 53%
    14:00 -4°C° 0 mm 2 mps 473 mmHg 56%
    15:00 -5°C° 0 mm 2 mps 472 mmHg 63%
    16:00 -7°C° 0 mm 3 mps 471 mmHg 70%
    17:00 -8°C° 0 mm 3 mps 470 mmHg 78%
    18:00 -10°C° 0 mm 3 mps 469 mmHg 80%
    19:00 -13°C° 0 mm 3 mps 467 mmHg 82%
    20:00 -16°C° 0 mm 3 mps 466 mmHg 84%
    21:00 -16°C° 0 mm 3 mps 466 mmHg 84%
    22:00 -17°C° 0 mm 3 mps 465 mmHg 83%
    23:00 -18°C° 0 mm 3 mps 465 mmHg 82%
    Show more